Location: Presov
(49.0000°N, 21.2500°E)
Time: 10:55:52
(UTC+02:00)

A-11 Canister half - Pass Details

Date: 20 April 2021
Orbit: 1526 x 1683 km, 47.3° (Epoch: 11 May)

Event Time Altitude Azimuth Distance (km) Brightness Sun altitude
Rises 00:00:07 0° 287° (WNW) 4,936 12.0 -29.0°
Reaches altitude 10° 00:04:58 10° 268° (W) 3,930 11.2 -29.2°
Enters shadow 00:10:08 16° 237° (WSW) 3,446 10.6 -29.3°
